Location: Sommers-Bausch Observatory
(40.0037°N, 105.2635°W)
Time: 14:57:48
(UTC-06:00)

Amateur Radio Satellites - All Passes

Search period start: 26 March 2017 14:27
Search period end: 27 March 2017 14:27
Location: Sommers-Bausch Observatory, 40.0037°N, 105.2635°W

Satellite Date Start Highest point End Downlink Frequencies (MHz)
Time Altitude Azimuth
DX 1 26 Mar 14:42:47 14:46:42 32° 291° (WNW) 14:50:36 434.975-435.025
AO-7 26 Mar 14:54:37 15:02:32 50° 64° (ENE) 15:10:27 .
RS-15 26 Mar 14:59:32 15:11:00 47° 316° (NW) 15:22:50 29.354- 29.394
Oscar 19 26 Mar 15:22:13 15:23:10 10° 271° (W) 15:24:07 437.125/150
UKube-1 26 Mar 15:23:54 15:26:44 17° 295° (WNW) 15:29:34 .
ITAMSAT 1 26 Mar 15:24:43 15:29:57 80° 74° (ENE) 15:35:12 435.822/435.867
BEESAT 26 Mar 15:26:06 15:30:29 36° 98° (E) 15:34:51 436.000
Gurwin Techsat 1B 26 Mar 15:33:49 15:36:54 16° 269° (W) 15:40:01 435.225
ITUPSAT 1 26 Mar 15:42:07 15:46:46 52° 100° (E) 15:51:23 437.325
NO-84 26 Mar 15:42:16 15:44:32 17° 232° (SW) 15:46:55 435.350 FM
MOZHAYETS 4 26 Mar 15:44:01 15:47:38 23° 94° (E) 15:51:15
SO-50 26 Mar 16:06:39 16:10:54 35° 310° (NW) 16:15:07 436.795
CUBESAT XI-V 26 Mar 16:37:04 16:39:29 14° 91° (E) 16:41:53 437.345
AO-7 26 Mar 16:47:58 16:55:26 36° 262° (W) 17:02:57 .
KKS-1 26 Mar 17:01:46 17:05:48 32° 97° (E) 17:09:47 437.445
BEESAT 26 Mar 17:04:19 17:08:02 23° 294° (WNW) 17:11:46 436.000
O/OREOS (USA 219) 26 Mar 17:05:23 17:09:46 55° 108° (ESE) 17:14:15 437.305
ITAMSAT 1 26 Mar 17:08:16 17:09:59 11° 271° (W) 17:11:42 435.822/435.867
CUTE-I 26 Mar 17:16:15 17:19:55 19° 62° (ENE) 17:23:35 437.470
RS-15 26 Mar 17:18:55 17:27:54 22° 348° (NNW) 17:36:54 29.354- 29.394
MOZHAYETS 4 26 Mar 17:20:46 17:24:49 32° 290° (WNW) 17:28:52
ITUPSAT 1 26 Mar 17:21:09 17:24:09 17° 297° (WNW) 17:27:10 437.325
YUBILEINY 26 Mar 17:22:01 17:26:23 14° 60° (ENE) 17:30:45 435.215
PCSat 26 Mar 17:24:47 17:26:33 11° 38° (NE) 17:28:20 145.827
XW-2D 26 Mar 17:24:54 17:27:15 16° 67° (ENE) 17:29:36 145.860 - 145.880
NUDT-PHONESAT 26 Mar 17:25:12 17:26:43 12° 65° (ENE) 17:28:13 437.300
XW-2B 26 Mar 17:30:33 17:33:09 18° 68° (ENE) 17:35:45 145.730 - 145.750
KAITUO 1B 26 Mar 17:31:50 17:33:59 15° 67° (ENE) 17:36:07 145.475/437.950
STARS 26 Mar 17:37:50 17:41:53 34° 97° (E) 17:45:53 437.465
XW-2C 26 Mar 17:40:13 17:43:16 23° 70° (ENE) 17:46:19 145.795 - 145.815
DOVE 4 26 Mar 18:10:02 18:14:40 77° 75° (ENE) 18:19:39 437.250
CUBESAT XI-V 26 Mar 18:12:37 18:17:10 56° 286° (WNW) 18:21:44 437.345
XW-2F 26 Mar 18:31:15 18:35:03 81° 257° (WSW) 18:38:51 145.980 - 146.000
LilacSat-2 26 Mar 18:32:47 18:36:37 71° 259° (WSW) 18:40:26 437.200
KKS-1 26 Mar 18:38:37 18:42:10 23° 293° (WNW) 18:45:42 437.445
HO-68 26 Mar 18:45:16 18:51:37 36° 64° (ENE) 18:57:59 435.675
O/OREOS (USA 219) 26 Mar 18:46:45 18:49:33 16° 306° (NW) 18:52:22 437.305
CUTE-I 26 Mar 18:54:12 18:59:28 58° 259° (WSW) 19:04:47 437.470
NUDT-PHONESAT 26 Mar 18:56:38 19:00:14 44° 261° (W) 19:03:50 437.300
XW-2D 26 Mar 18:57:40 19:01:10 34° 263° (W) 19:04:38 145.860 - 145.880
XW-2B 26 Mar 19:03:45 19:07:07 30° 263° (W) 19:10:30 145.730 - 145.750
KAITUO 1B 26 Mar 19:04:14 19:07:42 35° 262° (W) 19:11:10 145.475/437.950
PCSat 26 Mar 19:05:41 19:11:05 62° 59° (ENE) 19:16:26 145.827
XW-2A 26 Mar 19:07:01 19:10:08 33° 73° (ENE) 19:13:16 145.665 - 145.685
STRAND 1 26 Mar 19:08:38 19:10:43 12° 90° (E) 19:12:48 437.568
XW-2C 26 Mar 19:14:21 19:17:23 22° 265° (W) 19:20:25 145.795 - 145.815
AAUSAT CUBESAT 2 26 Mar 19:14:28 19:15:33 11° 63° (ENE) 19:16:38 437.432
STARS 26 Mar 19:14:38 19:18:00 22° 294° (WNW) 19:21:20 437.465
YUBILEINY 26 Mar 19:16:05 19:24:49 75° 81° (E) 19:33:31 435.215
CUBEBUG 2 26 Mar 19:18:37 19:22:11 21° 67° (ENE) 19:25:44 437.445
SEEDS 26 Mar 19:27:28 19:31:11 32° 71° (ENE) 19:34:53 437.485
M-CUBED/EXP-1 PRIME 26 Mar 19:31:46 19:36:25 74° 107° (ESE) 19:41:05 437.505
CUTE 1.7 + AOD 2 26 Mar 19:34:06 19:38:15 60° 74° (ENE) 19:42:24 437.475
RS-15 26 Mar 19:36:23 19:46:25 27° 25° (NNE) 19:56:10 29.354- 29.394
DOVE 4 26 Mar 19:52:10 19:53:01 10° 273° (W) 19:53:53 437.250
AO-73 26 Mar 19:54:29 19:57:15 16° 65° (ENE) 19:59:59 145.935
AO-85 26 Mar 20:09:22 20:12:06 16° 111° (ESE) 20:14:45 145.980
UWE-3 26 Mar 20:19:48 20:24:22 56° 74° (ENE) 20:28:53 435.000/436.395/437.385
HO-68 26 Mar 20:32:27 20:39:10 43° 261° (W) 20:45:56 435.675
XW-2A 26 Mar 20:41:26 20:43:00 13° 268° (W) 20:44:35 145.665 - 145.685
STRAND 1 26 Mar 20:45:18 20:50:25 73° 286° (WNW) 20:55:28 437.568
AAUSAT CUBESAT 2 26 Mar 20:46:24 20:50:27 62° 259° (W) 20:54:32 437.432
Tancredo 1 26 Mar 20:47:41 20:50:46 54° 139° (SE) 20:53:51 437.200
ISS 26 Mar 20:48:30 20:51:39 48° 138° (SE) 20:54:49 437.550
PCSat 26 Mar 20:50:26 20:53:56 18° 255° (WSW) 20:57:25 145.827
Oscar 11 26 Mar 20:52:43 20:56:56 55° 74° (ENE) 21:01:09 .
CUBEBUG 2 26 Mar 20:54:03 20:58:30 40° 262° (W) 21:02:59 437.445
ZACube-1 26 Mar 21:00:10 21:04:44 88° 74° (ENE) 21:09:15 437.345
SEEDS 26 Mar 21:03:53 21:06:54 19° 266° (W) 21:09:57 437.485
M-CUBED/EXP-1 PRIME 26 Mar 21:07:57 21:10:16 14° 302° (WNW) 21:12:34 437.505
CUTE 1.7 + AOD 2 26 Mar 21:13:36 21:14:27 10° 270° (W) 21:15:17 437.475
YUBILEINY 26 Mar 21:14:32 21:20:38 22° 280° (W) 21:26:45 435.215
AO-73 26 Mar 21:28:41 21:33:04 49° 261° (W) 21:37:26 145.935
AO-85 26 Mar 21:47:54 21:52:11 48° 305° (NW) 21:56:13 145.980
RS-15 26 Mar 21:49:29 22:01:48 69° 54° (NE) 22:13:31 29.354- 29.394
PRISM 26 Mar 21:55:51 21:59:12 23° 96° (E) 22:02:32 437.425
UWE-3 26 Mar 21:58:37 22:01:06 14° 269° (W) 22:03:35 435.000/436.395/437.385
DELFI C3 26 Mar 22:03:43 22:07:36 74° 258° (WSW) 22:11:33 145.870
BEESAT 3 26 Mar 22:21:45 22:25:21 37° 115° (ESE) 22:29:02 437.485
Tancredo 1 26 Mar 22:24:33 22:27:04 21° 336° (NNW) 22:29:37 437.200
ISS 26 Mar 22:25:33 22:28:16 24° 335° (NNW) 22:31:00 437.550
FO-29 26 Mar 22:27:44 22:31:38 18° 89° (E) 22:35:19 435.910
Oscar 11 26 Mar 22:31:38 22:33:23 12° 269° (W) 22:35:07 .
BEESAT 2 26 Mar 22:38:38 22:41:42 22° 112° (ESE) 22:44:48 435.950
TIGRISAT 26 Mar 22:38:43 22:42:42 33° 97° (E) 22:46:35 435.000
UNISAT 6 26 Mar 22:48:47 22:53:03 46° 99° (E) 22:57:12 437.425
SO-50 26 Mar 22:58:17 23:01:50 22° 46° (NE) 23:05:22 436.795
ESTCUBE 1 26 Mar 23:14:10 23:18:23 43° 71° (ENE) 23:22:37 437.505/2401.250
PRISM 26 Mar 23:30:53 23:34:26 27° 291° (WNW) 23:37:58 437.425
SPROUT 26 Mar 23:32:14 23:35:05 18° 66° (ENE) 23:37:56 437.525
LO-87 26 Mar 23:32:53 23:36:22 52° 260° (W) 23:39:55 145.935 - 145.965
POLYITAN 1 26 Mar 23:44:30 23:46:44 14° 92° (E) 23:48:58 437.675
QB50P2 26 Mar 23:48:39 23:51:28 17° 93° (E) 23:54:15 145.880/145.840
BEESAT 3 27 Mar 00:00:06 00:03:05 20° 313° (NW) 00:06:05 437.485
DUCHIFAT 1 27 Mar 00:00:16 00:03:05 17° 93° (E) 00:05:54 145.980
DX 1 27 Mar 00:02:23 00:05:22 18° 65° (ENE) 00:08:22 434.975-435.025
RS-15 27 Mar 00:02:59 00:13:22 35° 256° (WSW) 00:23:23 29.354- 29.394
Tancredo 1 27 Mar 00:03:25 00:04:09 11° 356° (N) 00:04:53 437.200
ISS 27 Mar 00:04:33 00:05:40 11° 355° (N) 00:06:47 437.550
FO-29 27 Mar 00:11:26 00:17:18 56° 289° (WNW) 00:22:34 435.910
AIST 2D 27 Mar 00:13:11 00:16:37 56° 100° (E) 00:20:02 435.315
BEESAT 2 27 Mar 00:15:44 00:19:17 31° 309° (NW) 00:22:54 435.950
TIGRISAT 27 Mar 00:15:50 00:19:10 21° 293° (WNW) 00:22:27 435.000
VELOX 1 27 Mar 00:24:54 00:29:17 78° 76° (ENE) 00:33:44 145.980
UNISAT 6 27 Mar 00:26:41 00:29:21 16° 296° (WNW) 00:31:58 437.425
50 SAT 27 Mar 00:27:14 00:30:32 47° 74° (ENE) 00:33:53 437.505
SO-50 27 Mar 00:38:12 00:42:29 44° 243° (WSW) 00:46:44 436.795
UKube-1 27 Mar 00:40:41 00:44:31 33° 70° (ENE) 00:48:24 .
NANOSAT C BR1 27 Mar 00:45:27 00:49:40 66° 102° (ESE) 00:53:50 145.865
EO-79 27 Mar 00:50:16 00:54:32 82° 104° (ESE) 00:58:44 145.935-145.965
ESTCUBE 1 27 Mar 00:52:28 00:55:22 17° 268° (W) 00:58:16 437.505/2401.250
SPROUT 27 Mar 01:06:36 01:10:39 40° 262° (W) 01:14:45 437.525
POLYITAN 1 27 Mar 01:18:43 01:22:46 46° 287° (WNW) 01:26:47 437.675
QB50P2 27 Mar 01:23:28 01:27:23 38° 289° (WNW) 01:31:17 145.880/145.840
DUCHIFAT 1 27 Mar 01:35:00 01:38:53 36° 289° (WNW) 01:42:43 145.980
DX 1 27 Mar 01:37:11 01:41:14 39° 261° (W) 01:45:21 434.975-435.025
O/OREOS (USA 219) 27 Mar 01:39:05 01:40:27 11° 51° (NE) 01:41:49 437.305
Tancredo 1 27 Mar 01:39:25 01:41:21 15° 17° (NNE) 01:43:18 437.200
ISS 27 Mar 01:41:13 01:43:14 15° 16° (NNE) 01:45:15 437.550
BUGSAT 1 27 Mar 01:49:06 01:53:17 79° 284° (WNW) 01:57:23 437.445
Oscar 19 27 Mar 01:50:39 01:55:12 30° 96° (E) 01:59:44 437.125/150
Gurwin Techsat 1B 27 Mar 02:08:43 02:13:07 26° 95° (E) 02:17:30 435.225
UKube-1 27 Mar 02:17:21 02:20:36 21° 265° (W) 02:23:52 .
NANOSAT C BR1 27 Mar 02:23:35 02:24:48 11° 297° (WNW) 02:26:01 145.865
BEESAT 27 Mar 02:31:40 02:36:06 39° 70° (ENE) 02:40:32 436.000
MOZHAYETS 4 27 Mar 02:45:26 02:48:54 22° 67° (ENE) 02:52:22
ITUPSAT 1 27 Mar 02:47:56 02:52:36 57° 73° (ENE) 02:57:19 437.325
AO-7 27 Mar 02:59:22 03:03:25 14° 89° (E) 03:07:27 .
Tancredo 1 27 Mar 03:14:49 03:18:00 63° 35° (NE) 03:21:10 437.200
O/OREOS (USA 219) 27 Mar 03:15:53 03:20:31 86° 252° (WSW) 03:25:07 437.305
ISS 27 Mar 03:17:00 03:20:15 58° 34° (NE) 03:23:31 437.550
Oscar 19 27 Mar 03:29:56 03:34:27 32° 292° (WNW) 03:38:59 437.125/150
ITAMSAT 1 27 Mar 03:38:43 03:43:13 29° 96° (E) 03:47:41 435.822/435.867
CUBESAT XI-V 27 Mar 03:40:24 03:42:36 13° 63° (ENE) 03:44:48 437.345
Gurwin Techsat 1B 27 Mar 03:48:14 03:53:08 38° 291° (WNW) 03:58:00 435.225
KKS-1 27 Mar 03:59:10 04:02:57 28° 68° (ENE) 04:06:46 437.445
BEESAT 27 Mar 04:10:24 04:13:59 21° 266° (W) 04:17:35 436.000
MOZHAYETS 4 27 Mar 04:21:34 04:25:49 37° 263° (W) 04:30:04
ITUPSAT 1 27 Mar 04:28:09 04:30:46 15° 268° (W) 04:33:24 437.325
STARS 27 Mar 04:33:45 04:37:32 29° 69° (ENE) 04:41:21 437.465
AO-85 27 Mar 04:40:48 04:42:30 12° 42° (NE) 04:44:12 145.980
AO-7 27 Mar 04:49:00 04:57:21 80° 107° (ESE) 05:05:38 .
Tancredo 1 27 Mar 04:52:14 04:53:45 13° 230° (SW) 04:55:17 437.200
ISS 27 Mar 04:54:29 04:56:23 15° 230° (SW) 04:58:18 437.550
CUBESAT XI-V 27 Mar 05:14:53 05:19:26 63° 259° (W) 05:24:00 437.345
ITAMSAT 1 27 Mar 05:18:02 05:22:39 33° 292° (WNW) 05:27:14 435.822/435.867
KKS-1 27 Mar 05:35:41 05:39:26 26° 264° (W) 05:43:13 437.445
XW-2F 27 Mar 06:06:52 06:07:23 10° 91° (E) 06:07:53 145.980 - 146.000
LilacSat-2 27 Mar 06:08:24 06:10:00 12° 92° (E) 06:11:34 437.200
DOVE 4 27 Mar 06:09:55 06:14:16 25° 93° (E) 06:18:31 437.250
STARS 27 Mar 06:10:10 06:13:50 25° 264° (W) 06:17:32 437.465
M-CUBED/EXP-1 PRIME 27 Mar 06:17:15 06:20:54 77° 71° (ENE) 06:24:55 437.505
AO-85 27 Mar 06:19:24 06:23:19 72° 241° (WSW) 06:27:21 145.980
STRAND 1 27 Mar 06:23:18 06:26:47 19° 63° (ENE) 06:30:17 437.568
YUBILEINY 27 Mar 06:24:06 06:28:55 16° 77° (ENE) 06:33:43 435.215
NUDT-PHONESAT 27 Mar 06:28:40 06:31:03 16° 93° (E) 06:33:25 437.300
XW-2D 27 Mar 06:30:59 06:34:01 23° 95° (E) 06:37:02 145.860 - 145.880
KAITUO 1B 27 Mar 06:36:24 06:39:14 21° 95° (E) 06:42:03 145.475/437.950
XW-2B 27 Mar 06:36:48 06:40:00 26° 96° (E) 06:43:10 145.730 - 145.750
BEESAT 3 27 Mar 06:39:21 06:42:26 21° 47° (NE) 06:45:29 437.485
AO-7 27 Mar 06:43:03 06:49:13 24° 306° (NW) 06:55:25 .
XW-2C 27 Mar 06:46:48 06:50:16 35° 98° (E) 06:53:43 145.795 - 145.815
BEESAT 2 27 Mar 06:57:01 06:59:17 14° 43° (NE) 07:01:31 435.950
NO-84 27 Mar 06:59:13 07:02:05 75° 136° (SE) 07:04:55 435.350 FM
CUTE-I 27 Mar 07:11:48 07:17:06 60° 101° (E) 07:22:22 437.470
CUTE 1.7 + AOD 2 27 Mar 07:22:04 07:23:05 11° 90° (E) 07:24:07 437.475
XW-2F 27 Mar 07:38:11 07:41:48 48° 286° (WNW) 07:45:22 145.980 - 146.000
LilacSat-2 27 Mar 07:40:55 07:44:28 41° 287° (WNW) 07:48:00 437.200
DOVE 4 27 Mar 07:47:04 07:52:00 40° 290° (WNW) 07:56:50 437.250
HO-68 27 Mar 08:00:27 08:07:05 39° 98° (E) 08:13:40 435.675
STRAND 1 27 Mar 08:00:29 08:05:31 54° 260° (W) 08:10:35 437.568
NUDT-PHONESAT 27 Mar 08:01:48 08:05:02 29° 288° (WNW) 08:08:12 437.300
XW-2A 27 Mar 08:02:02 08:05:13 37° 98° (E) 08:08:21 145.665 - 145.685
XW-2D 27 Mar 08:05:11 08:08:06 22° 291° (WNW) 08:11:00 145.860 - 145.880
KAITUO 1B 27 Mar 08:10:13 08:13:11 23° 290° (WNW) 08:16:09 145.475/437.950
XW-2B 27 Mar 08:11:19 08:14:01 19° 291° (WNW) 08:16:44 145.730 - 145.750
UWE-3 27 Mar 08:12:59 08:13:55 11° 89° (E) 08:14:52 435.000/436.395/437.385
YUBILEINY 27 Mar 08:15:35 08:24:21 87° 95° (E) 08:33:07 435.215
BEESAT 3 27 Mar 08:16:25 08:20:09 38° 245° (WSW) 08:23:51 437.485
XW-2C 27 Mar 08:22:02 08:24:09 15° 293° (WNW) 08:26:17 145.795 - 145.815
AAUSAT CUBESAT 2 27 Mar 08:29:41 08:32:48 20° 94° (E) 08:35:55 437.432
BEESAT 2 27 Mar 08:33:26 08:37:29 66° 240° (WSW) 08:41:28 435.950
NO-84 27 Mar 08:38:44 08:39:58 12° 334° (NNW) 08:41:11 435.350 FM
FO-29 27 Mar 08:40:56 08:43:43 12° 55° (NE) 08:46:28 435.910
Oscar 11 27 Mar 08:43:17 08:44:06 10° 90° (E) 08:44:53 .
PRISM 27 Mar 08:45:19 08:47:47 16° 65° (ENE) 08:50:15 437.425
CUBEBUG 2 27 Mar 08:45:35 08:49:48 44° 98° (E) 08:53:51 437.445
SEEDS 27 Mar 08:46:43 08:50:55 70° 102° (ESE) 08:55:06 437.485
ZACube-1 27 Mar 08:50:27 08:53:10 17° 92° (E) 08:55:52 437.345
CUTE-I 27 Mar 08:53:07 08:56:38 18° 298° (WNW) 09:00:09 437.470
CUTE 1.7 + AOD 2 27 Mar 08:55:07 08:59:17 59° 286° (WNW) 09:03:26 437.475
AO-73 27 Mar 09:17:34 09:21:19 30° 97° (E) 09:24:59 145.935
TIGRISAT 27 Mar 09:36:21 09:40:22 29° 69° (ENE) 09:44:23 435.000
XW-2A 27 Mar 09:36:31 09:37:36 11° 294° (WNW) 09:38:42 145.665 - 145.685
DELFI C3 27 Mar 09:42:43 09:44:54 14° 92° (E) 09:47:06 145.870
PCSat 27 Mar 09:46:22 09:51:43 65° 114° (ESE) 09:57:06 145.827
UNISAT 6 27 Mar 09:46:23 09:50:45 39° 71° (ENE) 09:55:05 437.425
UWE-3 27 Mar 09:46:34 09:50:49 60° 285° (WNW) 09:54:56 435.000/436.395/437.385
HO-68 27 Mar 09:48:12 09:54:44 40° 295° (WNW) 10:01:16 435.675
AAUSAT CUBESAT 2 27 Mar 10:04:39 10:08:17 30° 289° (WNW) 10:11:56 437.432
Oscar 11 27 Mar 10:16:21 10:20:37 63° 285° (WNW) 10:24:52 .
YUBILEINY 27 Mar 10:16:29 10:22:20 19° 297° (WNW) 10:28:11 435.215
PRISM 27 Mar 10:18:53 10:22:42 41° 261° (W) 10:26:35 437.425
FO-29 27 Mar 10:19:48 10:27:29 62° 72° (ENE) 10:34:42 435.910
CUBEBUG 2 27 Mar 10:23:18 10:26:00 16° 295° (WNW) 10:28:39 437.445
SEEDS 27 Mar 10:25:24 10:26:00 10° 297° (WNW) 10:26:36 437.485
ZACube-1 27 Mar 10:25:42 10:29:36 37° 289° (WNW) 10:33:26 437.345
POLYITAN 1 27 Mar 10:37:52 10:38:58 11° 62° (ENE) 10:40:02 437.675
QB50P2 27 Mar 10:41:34 10:43:32 13° 64° (ENE) 10:45:32 145.880/145.840
AIST 2D 27 Mar 10:47:36 10:50:08 19° 69° (ENE) 10:52:40 435.315
DUCHIFAT 1 27 Mar 10:52:23 10:54:21 13° 64° (ENE) 10:56:18 145.980
AO-73 27 Mar 10:54:13 10:57:21 21° 293° (WNW) 11:00:27 145.935
LO-87 27 Mar 11:02:06 11:03:44 12° 92° (E) 11:05:20 145.935 - 145.965
TIGRISAT 27 Mar 11:12:58 11:16:58 28° 264° (W) 11:20:59 435.000
DELFI C3 27 Mar 11:16:07 11:19:52 40° 287° (WNW) 11:23:36 145.870
UNISAT 6 27 Mar 11:24:05 11:27:33 20° 267° (W) 11:31:01 437.425
PCSat 27 Mar 11:31:36 11:35:35 20° 314° (NW) 11:39:36 145.827
NANOSAT C BR1 27 Mar 11:36:31 11:40:33 43° 72° (ENE) 11:44:36 145.865
EO-79 27 Mar 11:41:32 11:45:42 54° 74° (ENE) 11:49:54 145.935-145.965
FO-29 27 Mar 12:06:21 12:12:44 27° 267° (W) 12:18:53 435.910
POLYITAN 1 27 Mar 12:09:51 12:14:08 70° 258° (WSW) 12:18:26 437.675
RS-15 27 Mar 12:11:16 12:22:18 47° 108° (ESE) 12:33:41 29.354- 29.394
QB50P2 27 Mar 12:14:37 12:18:50 57° 260° (W) 12:23:04 145.880/145.840
VELOX 1 27 Mar 12:16:47 12:19:29 16° 92° (E) 12:22:08 145.980
AIST 2D 27 Mar 12:20:18 12:23:12 23° 264° (W) 12:26:07 435.315
DUCHIFAT 1 27 Mar 12:25:20 12:29:31 56° 260° (W) 12:33:43 145.980
LO-87 27 Mar 12:33:56 12:37:20 37° 287° (WNW) 12:40:43 145.935 - 145.965
BUGSAT 1 27 Mar 12:37:27 12:41:37 64° 75° (ENE) 12:45:51 437.445
ESTCUBE 1 27 Mar 12:43:28 12:47:59 78° 284° (WNW) 12:52:29 437.505/2401.250
SPROUT 27 Mar 12:52:52 12:56:46 33° 97° (E) 13:00:38 437.525
Oscar 19 27 Mar 13:06:46 13:11:32 42° 70° (ENE) 13:16:20 437.125/150
NANOSAT C BR1 27 Mar 13:13:55 13:16:27 15° 268° (W) 13:19:00 145.865
EO-79 27 Mar 13:19:59 13:21:46 12° 269° (W) 13:23:34 145.935-145.965
50 SAT 27 Mar 13:24:47 13:28:15 57° 101° (E) 13:31:42 437.505
DX 1 27 Mar 13:25:44 13:29:46 35° 98° (E) 13:33:47 434.975-435.025
Gurwin Techsat 1B 27 Mar 13:28:57 13:33:51 39° 69° (ENE) 13:38:46 435.225
NO-84 27 Mar 13:33:11 13:36:06 35° 38° (NE) 13:39:15 435.350 FM
VELOX 1 27 Mar 13:51:52 13:56:09 47° 288° (WNW) 14:00:25 145.980
AO-7 27 Mar 13:57:21 14:03:26 23° 53° (NE) 14:09:29 .
UKube-1 27 Mar 14:03:33 14:07:53 66° 102° (ESE) 14:12:11 .
BUGSAT 1 27 Mar 14:16:46 14:17:23 10° 270° (W) 14:18:00 437.445
